[[{"header":{"parameterUnit":"m.s-1","parameterCategory":1,"la1":30.2991,"la2":30.254,"lo1":-89.0895,"lo2":-89.0444,"dy":0.0017,"dx":0.0017,"nx":28,"ny":28,"refTime":"2025-12-15T09:00:00:Z","depth":0,"parameterNumber":2,"parameterNumberName":"U-component_of_WINDS"},"data":[0,0,0,0,0,0,0,0,0,0,0,0,0,0,0,0,0,0,0,0,0,0,0,0,0,0,0,0,0,0,0,0,0,0,0,0,0,0,0,0,0,0,0,0,0,0,0,0,0,0,0,0,0,0,0,0,0,0,-3.6266,-3.6267,0,-3.64,-3.6402,-3.6403,-3.6335,-3.6332,-3.6328,-3.6325,-3.6464,-3.647,-3.6477,0,0,0,0,0,0,0,0,0,0,0,0,0,-3.5952,-3.5958,-3.6266,-3.6268,-3.6269,-3.64,-3.6402,-3.6404,-3.6336,-3.6332,-3.6327,-3.6323,-3.6461,-3.6469,-3.6478,0,0,0,0,0,0,0,0,0,0,0,0,0,-3.6088,-3.596,-3.6266,-3.6251,-3.6251,-3.64,-3.6402,-3.6404,-3.6337,-3.6331,-3.6326,-3.6321,-3.6458,-3.6469,-3.6479,-3.665,0,0,-3.6511,-3.6516,0,0,0,0,0,0,0,0,-3.608,-3.6099,-3.6252,-3.6252,-3.6253,-3.6346,-3.6342,-3.6487,-3.6338,-3.6304,-3.6325,-3.6319,-3.6429,-3.6441,-3.6478,-3.6656,-3.6662,-3.6512,-3.6518,-3.6523,-3.6526,0,0,0,0,0,0,0,-3.6071,-3.6093,-3.6319,-3.6254,-3.6255,-3.6238,-3.6252,-3.6369,-3.6395,-3.6307,-3.6302,-3.6319,-3.6428,-3.6468,-3.6481,-3.6664,-3.6512,-3.6521,-3.6527,-3.6532,-3.6989,-3.6995,0,0,0,0,0,0,-3.6062,-3.6086,-3.6315,-3.6323,-3.6152,-3.6248,-3.6263,-3.6321,-3.6393,-3.6399,-3.6323,-3.6315,-3.6453,-3.6469,-3.6485,-3.6689,-3.6523,-3.6533,-3.6539,-3.6984,-3.6991,-3.6997,0,0,0,0,0,0,-3.6055,-3.6083,-3.6309,-3.6203,-3.6231,-3.6259,-3.6325,-3.6327,-3.6367,-3.6406,-3.641,-3.636,-3.6449,-3.6471,-3.6609,-3.6693,-3.6537,-3.6547,-3.6977,-3.6986,-3.6994,-3.7099,0,0,0,0,0,0,-3.6047,-3.6081,-3.6146,-3.6205,-3.6237,-3.6431,-3.633,-3.6333,-3.6385,-3.6375,-3.6441,-3.6447,-3.6447,-3.6594,-3.662,-3.6705,-3.6555,-3.6969,-3.6981,-3.6991,-3.7088,-3.7111,-3.713,0,0,0,0,0,-3.6036,-3.617,-3.6149,-3.6177,-3.6318,-3.6436,-3.6454,-3.6451,-3.6392,-3.6457,-3.6482,-3.6444,-3.6681,-3.6609,-3.6637,-3.6727,-3.6964,-3.6977,-3.699,-3.7079,-3.7106,-3.7129,0,0,0,0,0,0,-3.612,-3.6178,-3.6155,-3.6313,-3.637,-3.6424,-3.6506,-3.648,-3.6555,-3.6543,-3.6537,-3.6552,-3.6696,-3.6726,-3.6645,-3.6896,-3.6813,-3.6833,-3.6871,-3.6897,-3.6917,-3.6906,-3.6564,0,0,0,0,0,-3.6157,-3.6247,-3.6293,-3.6428,-3.6458,-3.6478,-3.6529,-3.6522,-3.658,-3.6604,-3.6639,-3.6698,-3.6786,-3.6843,-3.6926,-3.7093,-3.7106,-3.7169,-3.719,-3.7206,-3.7223,-3.7313,-3.7341,-3.704,-3.704,-3.704,0,0,-3.6234,-3.6277,-3.6334,-3.6446,-3.6489,-3.6583,-3.6498,-3.6601,-3.667,-3.662,-3.6752,-3.6781,-3.6846,-3.7,-3.7069,-3.7029,-3.7309,-3.7223,-3.7236,-3.7244,-3.7329,-3.7358,-3.7383,-3.7049,-3.7048,-3.7046,0,0,-3.6422,-3.6464,-3.6581,-3.6626,-3.6693,-3.6705,-3.6733,-3.6792,-3.6809,-3.6942,-3.6906,-3.6989,-3.714,-3.7188,-3.7232,-3.744,-3.7408,-3.7468,-3.7575,-3.7663,-3.7686,-3.7707,-3.7781,-3.7807,-3.7484,-3.7485,-3.7485,0,-3.6509,-3.6649,-3.6644,-3.675,-3.68,-3.6759,-3.6877,-3.6922,-3.7012,-3.7048,-3.7002,-3.719,-3.7232,-3.7395,-3.7446,-3.7484,-3.7516,-3.7459,-3.7683,-3.7704,-3.7724,-3.7794,-3.7821,-3.7491,-3.7491,-3.749,-3.7489,0,-3.6752,-3.685,-3.6936,-3.7024,-3.7085,-3.7196,-3.7209,-3.7271,-3.7259,-3.7277,-3.7413,-3.7462,-3.7553,-3.7592,-3.7582,-3.7755,-3.7728,-3.7683,-3.7599,-3.7759,-3.7825,-3.7851,-3.7501,-3.7498,-3.7496,-3.7495,0,0,-3.6995,-3.708,-3.7112,-3.7151,-3.7223,-3.7298,-3.7408,-3.7498,-3.755,-3.7615,-3.7707,-3.7837,-3.7795,-3.7846,-3.7841,-3.7919,-3.808,-3.7864,-3.7866,-3.7901,-3.8273,-3.8305,-3.8336,-3.806,-3.8065,-3.8069,-3.8267,0,-3.7187,-3.7378,-3.7378,-3.7555,-3.7645,-3.7609,-3.7705,-3.7759,-3.778,-3.7859,-3.7882,-3.7973,-3.7912,-3.7942,-3.8018,-3.8044,-3.8154,-3.803,-3.8145,-3.8149,-3.8127,-3.837,-3.8404,-3.8589,-3.8293,-3.8297,-3.83,0,-3.7435,-3.7507,-3.7694,-3.7752,-3.779,-3.7876,-3.7958,-3.8035,-3.8097,-3.8106,-3.8163,-3.8147,-3.826,-3.8174,-3.833,-3.8245,-3.8293,-3.8313,-3.832,-3.8329,-3.8233,-3.8384,-3.8647,-3.8674,-3.8341,-3.8337,-3.8334,0,-3.7592,-3.7736,-3.7866,-3.7901,-3.7973,-3.8035,-3.8068,-3.8124,-3.8178,-3.825,-3.8285,-3.837,-3.8417,-3.8483,-3.8491,-3.8428,-3.8647,-3.8562,-3.8657,-3.8657,-3.8703,-3.87,-3.8976,-3.8737,-3.8737,-3.8736,-3.8736,0,-3.7804,-3.7919,-3.7937,-3.8017,-3.8145,-3.8144,-3.8271,-3.8299,-3.835,-3.8435,-3.841,-3.849,-3.8496,-3.8579,-3.8586,-3.8713,-3.8734,-3.8745,-3.8745,-3.8746,-3.8744,-3.8775,-3.8762,-3.8743,-3.8742,-3.874,-3.8739,0,-3.7999,-3.8016,-3.8155,-3.8212,-3.8229,-3.8321,-3.837,-3.8447,-3.8465,-3.8573,-3.8598,-3.8627,-3.8724,-3.8738,-3.8852,-3.8856,-3.9008,-3.8996,-3.8987,-3.8985,-3.9078,-3.9069,-3.9383,-3.9423,-3.916,-3.9162,-3.9164,0,-3.8133,-3.822,-3.8287,-3.8342,-3.8378,-3.8467,-3.8522,-3.8526,-3.8584,-3.8662,-3.8729,-3.8823,-3.8898,-3.9054,-3.9085,-3.9172,-3.9161,-3.9265,-3.9173,-3.9172,-3.916,-3.9154,-3.9163,-3.9281,-3.9284,-3.9287,-3.9289,0,-3.8368,-3.8372,-3.8452,-3.8536,-3.8602,-3.8668,-3.873,-3.8777,-3.8789,-3.8856,-3.8954,-3.9012,-3.9128,-3.9221,-3.9308,-3.9342,-3.9318,-3.9318,-3.9344,-3.9345,-3.9335,-3.934,-3.9033,-3.931,-3.9308,-3.9306,-3.9305,-3.9304,-3.8535,-3.8611,-3.867,-3.876,-3.8808,-3.8867,-3.8941,-3.8969,-3.9051,-3.9145,-3.9143,-3.9251,-3.9311,-3.9424,-3.9465,-3.955,-3.9516,-3.9554,-3.9564,-3.9573,-3.9581,-3.9324,-3.9566,-3.9565,-3.9565,-3.9564,-3.9564,0,-3.8767,-3.8803,-3.8886,-3.8974,-3.9046,-3.9017,-3.9085,-3.9147,-3.9242,-3.93,-3.9375,-3.9488,-3.9579,-3.9618,-3.9708,-3.9768,-3.9759,-3.9791,-3.9785,-3.9794,-3.9607,-3.9574,-3.9797,-3.9797,-3.9797,-3.9797,-3.9797,-3.9796,-3.8895,-3.9022,-3.9034,-3.9185,-3.9221,-3.9325,-3.9367,-3.9421,-3.9468,-3.9595,-3.967,-3.9696,-3.9747,-3.984,-3.9923,-3.9932,-3.9965,-4.0002,-4.0007,-3.9831,-3.9807,-3.9784,-3.9754,-4.001,-4.001,-4.0186,-4.0188,-4.0189]},{"header":{"parameterUnit":"m.s-1","parameterCategory":1,"la1":30.2991,"la2":30.254,"lo1":-89.0895,"lo2":-89.0444,"dy":0.0017,"dx":0.0017,"nx":28,"ny":28,"refTime":"2025-12-15T09:00:00:Z","depth":0,"parameterNumber":3,"parameterNumberName":"V-component_of_WINDS"},"data":[0,0,0,0,0,0,0,0,0,0,0,0,0,0,0,0,0,0,0,0,0,0,0,0,0,0,0,0,0,0,0,0,0,0,0,0,0,0,0,0,0,0,0,0,0,0,0,0,0,0,0,0,0,0,0,0,0,0,0.2076,0.2076,0,0.2105,0.2105,0.2106,0.2044,0.2042,0.204,0.2038,0.2069,0.2071,0.2074,0,0,0,0,0,0,0,0,0,0,0,0,0,0.1968,0.1971,0.2076,0.2076,0.2076,0.2105,0.2105,0.2106,0.2044,0.2042,0.2039,0.2037,0.2068,0.2071,0.2074,0,0,0,0,0,0,0,0,0,0,0,0,0,0.2008,0.1971,0.2076,0.2049,0.2047,0.2105,0.2105,0.2106,0.2045,0.2042,0.2039,0.2036,0.2067,0.2071,0.2074,0.216,0,0,0.2087,0.2089,0,0,0,0,0,0,0,0,0.2006,0.2012,0.2053,0.2051,0.2049,0.2068,0.2079,0.2124,0.2045,0.2046,0.2038,0.2034,0.2071,0.2074,0.2086,0.2161,0.2162,0.2087,0.209,0.2091,0.2092,0,0,0,0,0,0,0,0.2003,0.201,0.2087,0.2053,0.2051,0.2036,0.2039,0.2087,0.2075,0.2045,0.2041,0.2045,0.2069,0.2083,0.2087,0.2163,0.2087,0.2091,0.2093,0.2095,0.2312,0.2315,0,0,0,0,0,0,0.2004,0.2009,0.2086,0.2088,0.2019,0.2041,0.2043,0.2065,0.2074,0.2072,0.2048,0.2042,0.2077,0.2082,0.2087,0.219,0.2091,0.2095,0.2097,0.2308,0.2312,0.2316,0,0,0,0,0,0,0.2002,0.2011,0.2085,0.2047,0.2055,0.2046,0.207,0.2067,0.208,0.2076,0.2073,0.2064,0.2075,0.2082,0.2143,0.219,0.2097,0.2101,0.2304,0.231,0.2314,0.2394,0,0,0,0,0,0,0.1999,0.2011,0.2042,0.2048,0.2058,0.214,0.2073,0.207,0.2087,0.208,0.209,0.2089,0.2073,0.2137,0.2147,0.2194,0.2104,0.23,0.2307,0.2313,0.2387,0.2401,0.2413,0,0,0,0,0,0.1995,0.2063,0.2044,0.2054,0.2097,0.2142,0.2148,0.2128,0.2091,0.2124,0.2121,0.2089,0.2183,0.2144,0.2154,0.2203,0.2297,0.2305,0.2312,0.2381,0.2398,0.2413,0,0,0,0,0,0,0.2062,0.2063,0.2042,0.2114,0.2129,0.2132,0.2172,0.2146,0.2172,0.2164,0.2139,0.2142,0.2208,0.2211,0.2168,0.2287,0.2234,0.2244,0.2283,0.2299,0.2312,0.231,0.2107,0,0,0,0,0,0.2085,0.2122,0.2121,0.2184,0.2193,0.2181,0.22,0.2184,0.2198,0.2204,0.2206,0.2221,0.2254,0.2277,0.2307,0.2387,0.239,0.2426,0.2439,0.245,0.2459,0.2504,0.2521,0.2341,0.2341,0.2341,0,0,0.2134,0.2139,0.2163,0.2198,0.2207,0.2247,0.2187,0.223,0.2259,0.221,0.2269,0.2271,0.2286,0.2358,0.239,0.2363,0.2509,0.2459,0.2468,0.2471,0.2514,0.2531,0.2546,0.2346,0.2345,0.2344,0,0,0.2242,0.2249,0.2304,0.2315,0.233,0.2322,0.2336,0.2343,0.2343,0.2401,0.2366,0.2401,0.2458,0.2471,0.2485,0.2602,0.2573,0.2612,0.268,0.2725,0.2739,0.2752,0.2795,0.2811,0.2621,0.2621,0.2621,0,0.23,0.2357,0.2335,0.2382,0.2399,0.2357,0.2414,0.2425,0.245,0.2463,0.2433,0.2506,0.2513,0.2588,0.2617,0.2629,0.2645,0.2611,0.2739,0.2751,0.2762,0.2804,0.282,0.2626,0.2625,0.2625,0.2624,0,0.2429,0.247,0.2512,0.2538,0.256,0.2611,0.2598,0.2623,0.2605,0.2602,0.2663,0.267,0.2702,0.2719,0.2701,0.2793,0.2776,0.2743,0.2689,0.2785,0.2823,0.2839,0.2633,0.2631,0.263,0.2628,0,0,0.258,0.2594,0.261,0.2623,0.2637,0.2669,0.2719,0.2751,0.2774,0.2793,0.2835,0.2886,0.2856,0.2872,0.2856,0.2895,0.299,0.2857,0.2857,0.2883,0.3094,0.312,0.3139,0.2971,0.2974,0.2976,0.3093,0,0.2689,0.2775,0.2758,0.2843,0.2881,0.2843,0.2887,0.2902,0.29,0.2933,0.2931,0.2968,0.2924,0.2934,0.2971,0.2971,0.3032,0.2962,0.3012,0.3014,0.3011,0.3158,0.3186,0.3296,0.3108,0.311,0.3112,0,0.2827,0.2852,0.2942,0.2953,0.2968,0.3008,0.3038,0.3069,0.3086,0.3082,0.3101,0.3079,0.313,0.3075,0.3147,0.31,0.3119,0.3122,0.3126,0.3131,0.307,0.3169,0.333,0.3348,0.3135,0.3133,0.3132,0,0.293,0.2987,0.3048,0.3059,0.3073,0.3103,0.311,0.3124,0.3145,0.3171,0.3185,0.3216,0.3233,0.3259,0.3246,0.3206,0.3321,0.3264,0.332,0.3321,0.3347,0.3346,0.3515,0.3357,0.3357,0.3357,0.3356,0,0.3055,0.3111,0.3095,0.3133,0.3196,0.3176,0.324,0.3242,0.3255,0.3294,0.3262,0.33,0.328,0.3316,0.3306,0.3368,0.3376,0.3375,0.3372,0.3379,0.338,0.3393,0.3385,0.3361,0.336,0.3359,0.3358,0,0.3181,0.3172,0.3237,0.3246,0.325,0.3296,0.3304,0.334,0.3336,0.3386,0.3396,0.3391,0.3432,0.3422,0.3466,0.346,0.3539,0.3525,0.3534,0.3531,0.3589,0.3585,0.3774,0.3799,0.3623,0.3625,0.3626,0,0.3261,0.3304,0.3319,0.3343,0.3353,0.3391,0.3413,0.3396,0.342,0.3444,0.3478,0.3516,0.3546,0.3614,0.3615,0.3649,0.3637,0.3701,0.3642,0.3649,0.3641,0.3639,0.3644,0.3714,0.3716,0.3717,0.3718,0,0.3406,0.34,0.3433,0.3466,0.3493,0.3518,0.3539,0.3561,0.3545,0.3574,0.3617,0.364,0.3686,0.3726,0.3758,0.3766,0.3741,0.3737,0.3752,0.376,0.3764,0.3765,0.3568,0.3733,0.3732,0.373,0.373,0.3729,0.3513,0.3551,0.3567,0.3606,0.3621,0.3642,0.3678,0.3679,0.3714,0.3751,0.3738,0.3787,0.3805,0.3846,0.3858,0.3897,0.3873,0.3894,0.39,0.3906,0.3915,0.3757,0.3903,0.3902,0.3902,0.3901,0.3901,0,0.3658,0.3667,0.3703,0.3735,0.3766,0.3739,0.3763,0.3791,0.3834,0.3853,0.3883,0.3933,0.3972,0.3976,0.4013,0.4044,0.4033,0.4054,0.4052,0.4055,0.3933,0.3917,0.4062,0.4062,0.4062,0.4062,0.4062,0.4062,0.3737,0.38,0.3797,0.3868,0.3876,0.3924,0.394,0.3961,0.3976,0.4033,0.4066,0.4068,0.4082,0.412,0.4155,0.4155,0.4171,0.4197,0.4194,0.408,0.4064,0.4048,0.4033,0.4201,0.4201,0.4313,0.4314,0.4315]}]]